sat.trackr.live / text

‹ back to catalog

STARLINK-30990

NORAD 58478 · 2023-186F

PAYLOAD ACTIVE UNKNOWN

§ Identity

Operator
Country
US
Launch date
2023-12-03
Launch site
AFETR
Launch vehicle
Mass (kg)
RCS (m²)

Purposes: comms

External: N2YO · Heavens-Above · Gunter

§ Orbital elements

Epoch: 2026-05-24T23:39:01.750752Z

Period
94.27 min
Inclination
43.0026°
Eccentricity
0.0001901
Mean motion
15.27587087 rev/d
Perigee alt
481.7 km
Apogee alt
484.3 km
Semi-major
6,861.2 km
B*
8.5658e-5
RAAN
356.2646°
Arg perigee
261.8384°
Mean anomaly
98.2252°
Rev number
13,756

§ Raw data

STARLINK-309901 58478U 23186F   26144.98543693  .00002096  00000+0  85658-4 0  99982 58478  43.0026 356.2646 0001901 261.8384  98.2252 15.27587087137564

JSON: /api/v1/satellites/58478 · /tle

For live sub-satellite position, see the globe view (requires WebGL).

§ Visibility from observer

Set your observer location to see the next 7 days of passes ≥ 10°. The values pass through the URL so the page stays shareable.

No JS? Fill the form by hand. The geolocation button needs JavaScript.